• In Netherlands
  • List of Countries
  • For 7 days
  • Water Temperature
  • Satellite Maps
  • Weather Map
  • Weather Widgets
  • user-avatar
    Login

    Hourly Weather Ganja

    Today, 23 March, Thursday

    Time Temperature Precipitation Wind Pressure Humidity
    00:00 +4°C° 0 mm 0 mps 726 mmHg 59%
    01:00 +5°C° 0 mm 1 mps 726 mmHg 60%
    02:00 +4°C° 0 mm 1 mps 726 mmHg 61%
    03:00 +4°C° 0 mm 1 mps 726 mmHg 60%
    04:00 +4°C° 0 mm 1 mps 726 mmHg 62%
    05:00 +3°C° 0 mm 1 mps 726 mmHg 63%
    06:00 +3°C° 0 mm 1 mps 726 mmHg 65%
    07:00 +5°C° 0 mm 1 mps 726 mmHg 59%
    08:00 +7°C° 0 mm 1 mps 726 mmHg 54%
    09:00 +9°C° 0 mm 1 mps 726 mmHg 48%
    10:00 +10°C° 0 mm 1 mps 726 mmHg 47%
    11:00 +11°C° 0 mm 1 mps 726 mmHg 46%
    12:00 +12°C° 0 mm 1 mps 726 mmHg 46%
    13:00 +12°C° 0 mm 2 mps 725 mmHg 45%
    14:00 +12°C° 0 mm 2 mps 725 mmHg 45%
    15:00 +13°C° 0 mm 2 mps 725 mmHg 46%
    16:00 +10°C° 0 mm 2 mps 726 mmHg 51%
    17:00 +9°C° 0 mm 2 mps 726 mmHg 55%
    18:00 +8°C° 0 mm 2 mps 726 mmHg 60%
    19:00 +7°C° 0 mm 2 mps 727 mmHg 65%
    20:00 +6°C° 0 mm 2 mps 727 mmHg 70%
    21:00 +6°C° 0 mm 2 mps 728 mmHg 75%
    22:00 +5°C° 0 mm 2 mps 728 mmHg 79%
    23:00 +5°C° 0 mm 2 mps 729 mmHg 83%

    Tomorrow, 24 March, Friday

    Time Temperature Precipitation Wind Pressure Humidity
    00:00 +4°C° 0 mm 2 mps 729 mmHg 87%
    01:00 +4°C° 0 mm 2 mps 729 mmHg 89%
    02:00 +5°C° 0 mm 1 mps 729 mmHg 91%
    03:00 +5°C° 0 mm 1 mps 729 mmHg 92%
    04:00 +5°C° 0 mm 1 mps 729 mmHg 92%
    05:00 +4°C° 0 mm 1 mps 730 mmHg 92%
    06:00 +4°C° 0 mm 1 mps 730 mmHg 92%
    07:00 +6°C° 0 mm 1 mps 730 mmHg 85%
    08:00 +7°C° 0 mm 1 mps 730 mmHg 77%
    09:00 +8°C° 0 mm 2 mps 730 mmHg 70%
    10:00 +9°C° 0 mm 2 mps 730 mmHg 66%
    11:00 +10°C° 0 mm 3 mps 730 mmHg 61%
    12:00 +11°C° 0 mm 3 mps 729 mmHg 57%
    13:00 +11°C° 0 mm 3 mps 729 mmHg 57%
    14:00 +11°C° 0 mm 3 mps 729 mmHg 57%
    15:00 +12°C° 0 mm 4 mps 729 mmHg 57%
    16:00 +10°C° 0 mm 3 mps 729 mmHg 63%
    17:00 +9°C° 0 mm 3 mps 729 mmHg 69%
    18:00 +8°C° 0 mm 3 mps 729 mmHg 75%
    19:00 +7°C° 0 mm 3 mps 730 mmHg 78%
    20:00 +5°C° 0 mm 3 mps 730 mmHg 82%
    21:00 +4°C° 0 mm 3 mps 730 mmHg 86%
    22:00 +4°C° 0 mm 3 mps 730 mmHg 87%
    23:00 +5°C° 0 mm 2 mps 730 mmHg 89%

    Day after tomorrow, 25 March, Saturday

    Time Temperature Precipitation Wind Pressure Humidity
    00:00 +4°C° 0 mm 2 mps 730 mmHg 90%
    01:00 +4°C° 0 mm 2 mps 730 mmHg 92%
    02:00 +4°C° 0 mm 1 mps 729 mmHg 93%
    03:00 +4°C° 0 mm 1 mps 729 mmHg 95%
    04:00 +4°C° 0 mm 1 mps 729 mmHg 95%
    05:00 +2°C° 0 mm 0 mps 728 mmHg 95%
    06:00 +2°C° 0 mm 0 mps 728 mmHg 95%
    07:00 +4°C° 0 mm 0 mps 728 mmHg 85%
    08:00 +7°C° 0 mm 1 mps 728 mmHg 76%
    09:00 +10°C° 0 mm 1 mps 727 mmHg 67%
    10:00 +11°C° 0 mm 1 mps 727 mmHg 62%
    11:00 +12°C° 0 mm 1 mps 726 mmHg 58%
    12:00 +13°C° 0 mm 2 mps 726 mmHg 54%
    13:00 +14°C° 0 mm 2 mps 725 mmHg 53%
    14:00 +14°C° 0 mm 2 mps 724 mmHg 52%
    15:00 +15°C° 0 mm 2 mps 724 mmHg 51%
    16:00 +13°C° 0 mm 2 mps 723 mmHg 56%
    17:00 +12°C° 0 mm 2 mps 723 mmHg 62%
    18:00 +10°C° 0 mm 1 mps 723 mmHg 68%
    19:00 +10°C° 0 mm 1 mps 724 mmHg 71%
    20:00 +9°C° 0 mm 1 mps 724 mmHg 74%
    21:00 +8°C° 0 mm 1 mps 724 mmHg 76%
    22:00 +7°C° 0 mm 1 mps 724 mmHg 78%
    23:00 +7°C° 0 mm 1 mps 724 mmHg 80%

    26 March, Sunday

    Time Temperature Precipitation Wind Pressure Humidity
    00:00 +7°C° 0 mm 1 mps 724 mmHg 83%
    01:00 +6°C° 0 mm 1 mps 724 mmHg 84%
    02:00 +6°C° 0 mm 1 mps 724 mmHg 85%
    03:00 +5°C° 0 mm 0 mps 724 mmHg 87%
    04:00 +6°C° 0 mm 1 mps 724 mmHg 85%
    05:00 +6°C° 0 mm 1 mps 724 mmHg 83%
    06:00 +6°C° 0 mm 1 mps 724 mmHg 81%
    07:00 +7°C° 0 mm 2 mps 724 mmHg 71%
    08:00 +9°C° 0 mm 2 mps 725 mmHg 61%
    09:00 +13°C° 0 mm 2 mps 725 mmHg 51%
    10:00 +14°C° 0 mm 2 mps 724 mmHg 48%
    11:00 +15°C° 0 mm 2 mps 724 mmHg 46%
    12:00 +16°C° 0 mm 2 mps 723 mmHg 44%
    13:00 +16°C° 0 mm 2 mps 723 mmHg 43%
    14:00 +17°C° 0 mm 2 mps 723 mmHg 43%
    15:00 +17°C° 0 mm 2 mps 722 mmHg 43%
    16:00 +15°C° 0 mm 2 mps 723 mmHg 47%
    17:00 +14°C° 0 mm 1 mps 723 mmHg 52%
    18:00 +12°C° 0 mm 1 mps 723 mmHg 56%
    19:00 +11°C° 0 mm 1 mps 724 mmHg 56%
    20:00 +10°C° 0 mm 1 mps 724 mmHg 56%
    21:00 +9°C° 0 mm 1 mps 725 mmHg 57%
    22:00 +9°C° 0 mm 1 mps 725 mmHg 57%
    23:00 +8°C° 0 mm 2 mps 725 mmHg 56%

    27 March, Monday

    Time Temperature Precipitation Wind Pressure Humidity
    00:00 +7°C° 0 mm 2 mps 725 mmHg 56%
    01:00 +7°C° 0 mm 2 mps 725 mmHg 56%
    02:00 +7°C° 0 mm 2 mps 725 mmHg 56%
    03:00 +7°C° 0 mm 2 mps 725 mmHg 57%
    04:00 +7°C° 0 mm 2 mps 725 mmHg 56%
    05:00 +6°C° 0 mm 2 mps 725 mmHg 56%
    06:00 +6°C° 0 mm 2 mps 725 mmHg 56%
    07:00 +9°C° 0 mm 2 mps 725 mmHg 51%
    08:00 +12°C° 0 mm 2 mps 725 mmHg 45%
    09:00 +14°C° 0 mm 2 mps 724 mmHg 40%
    10:00 +15°C° 0 mm 2 mps 724 mmHg 38%
    11:00 +17°C° 0 mm 2 mps 723 mmHg 36%
    12:00 +18°C° 0 mm 2 mps 723 mmHg 34%
    13:00 +18°C° 0 mm 2 mps 722 mmHg 34%
    14:00 +19°C° 0 mm 2 mps 722 mmHg 33%
    15:00 +19°C° 0 mm 2 mps 721 mmHg 33%
    16:00 +17°C° 0 mm 2 mps 721 mmHg 38%
    17:00 +16°C° 0 mm 2 mps 721 mmHg 43%
    18:00 +14°C° 0 mm 2 mps 721 mmHg 48%
    19:00 +13°C° 0 mm 1 mps 722 mmHg 50%
    20:00 +12°C° 0 mm 1 mps 722 mmHg 51%
    21:00 +11°C° 0 mm 1 mps 722 mmHg 52%
    22:00 +11°C° 0 mm 1 mps 722 mmHg 53%
    23:00 +9°C° 0 mm 2 mps 722 mmHg 54%

    28 March, Tuesday

    Time Temperature Precipitation Wind Pressure Humidity
    00:00 +9°C° 0 mm 2 mps 722 mmHg 54%
    01:00 +9°C° 0 mm 2 mps 722 mmHg 54%
    02:00 +9°C° 0 mm 2 mps 722 mmHg 55%
    03:00 +9°C° 0 mm 2 mps 721 mmHg 55%
    04:00 +9°C° 0 mm 3 mps 721 mmHg 56%
    05:00 +9°C° 0 mm 3 mps 721 mmHg 57%
    06:00 +8°C° 0 mm 3 mps 721 mmHg 57%
    07:00 +11°C° 0 mm 3 mps 721 mmHg 51%
    08:00 +13°C° 0 mm 3 mps 721 mmHg 45%
    09:00 +16°C° 0 mm 3 mps 721 mmHg 39%
    10:00 +17°C° 0 mm 3 mps 720 mmHg 37%
    11:00 +18°C° 0 mm 4 mps 720 mmHg 35%
    12:00 +20°C° 0 mm 4 mps 719 mmHg 34%
    13:00 +20°C° 0.1 mm 4 mps 719 mmHg 34%
    14:00 +20°C° 0.1 mm 3 mps 719 mmHg 34%
    15:00 +20°C° 0.1 mm 3 mps 718 mmHg 35%
    16:00 +18°C° 0.1 mm 3 mps 719 mmHg 39%
    17:00 +17°C° 0.1 mm 2 mps 719 mmHg 44%
    18:00 +15°C° 0.1 mm 2 mps 720 mmHg 49%
    19:00 +15°C° 0 mm 2 mps 720 mmHg 51%
    20:00 +13°C° 0 mm 3 mps 721 mmHg 53%
    21:00 +12°C° 0 mm 3 mps 721 mmHg 55%
    22:00 +11°C° 0.1 mm 3 mps 721 mmHg 59%
    23:00 +11°C° 0.1 mm 3 mps 721 mmHg 63%
    Show more